Regional Weather Roundup
Issued by NWS

Home | Current Version | Previous Version | Graphics & Text | Print | Product List | Glossary On
Versions: 1 2 3 4 5 6 7 8 9 10 11 12 13 14 15 16 17 18 19 20 21 22 23 24 25 26 27 28 29 30 31 32 33 34 35 36 37 38 39 40 41 42 43 44 45 46 47 48 49 50
000
ASUS43 KLMK 261402
RWRKY
KENTUCKY REGIONAL WEATHER ROUNDUP
NATIONAL WEATHER SERVICE LOUISVILLE KY
900 AM EST THU FEB 26 2015

NOTE "FAIR" INDICATES FEW OR NO CLOUDS BELOW 12,000 FEET
WITH NO SIGNIFICANT WEATHER AND/OR OBSTRUCTIONS TO VISIBILITY.

KYZ001>023-026-027-061>063-070>075-261500-
WESTERN AND SOUTH CENTRAL KENTUCKY

CITY           SKY/WX    TMP DP  RH WIND       PRES   REMARKS
PADUCAH        CLOUDY    27  24  89 CALM      30.02R
HENDERSON      CLOUDY    28  19  69 N7        30.03R WCI  21
OWENSBORO      PTSUNNY   27  19  71 N7        30.02R WCI  20
HOPKINSVILLE   SUNNY     26  22  83 W3        30.00R
BOWLING GREEN  SUNNY     30  20  66 N6        29.98R WCI  24
GLASGOW        NOT AVBL
$$

KYZ024-025-028>034-038-045-046-053-261500-
NORTH CENTRAL KENTUCKY

CITY           SKY/WX    TMP DP  RH WIND       PRES   REMARKS
LOUISVILLE/SDF PTSUNNY   27  16  63 N12       30.00R WCI  17
LOUISVILLE/LOU PTSUNNY   27  15  61 N7        30.00R WCI  19
FORT KNOX      MOSUNNY   26  17  69 N7        29.96R WCI  18
$$

KYZ035>037-039>044-047>052-055>060-089>105-261500-
NORTHEAST KENTUCKY

CITY           SKY/WX    TMP DP  RH WIND       PRES   REMARKS
LEXINGTON      SUNNY     23  14  68 N10       29.93R WCI  12
COVINGTON      CLOUDY    20  10  65 N10       29.98R WCI   9
FRANKFORT      MOSUNNY   24  12  60 N9        29.96R WCI  14
$$

KYZ054-064>069-076>088-106>120-261500-
SOUTHEAST KENTUCKY

CITY           SKY/WX    TMP DP  RH WIND       PRES   REMARKS
JACKSON        CLOUDY    29  20  69 VRB3      29.87R
LONDON         CLOUDY    31  24  75 N6        29.87R WCI  25
SOMERSET       NOT AVBL
MIDDLESBORO    NOT AVBL
MONTICELLO     CLOUDY    32  28  85 NW5       29.94R WCI  27
$$




USA.gov is the U.S. government's official web portal to all federal, state and local government web resources and services.